TimeCDT,TemperatureF,Dew PointF,Humidity,Sea Level PressureIn,VisibilityMPH,Wind Direction,Wind SpeedMPH,Gust SpeedMPH,PrecipitationIn,Events,Conditions,WindDirDegrees,DateUTC
12:53 AM,39.9,25.0,55,30.35,10.0,North,4.6,-,N/A,,Overcast,350,2012-10-06 05:53:00
1:53 AM,37.0,25.0,62,30.35,10.0,NNW,5.8,-,N/A,,Overcast,340,2012-10-06 06:53:00
2:53 AM,35.1,24.1,64,30.34,10.0,North,3.5,-,N/A,,Clear,10,2012-10-06 07:53:00
3:53 AM,35.1,24.1,64,30.35,10.0,South,4.6,-,N/A,,Mostly Cloudy,180,2012-10-06 08:53:00
4:53 AM,30.2,23.0,75,30.32,10.0,West,3.5,-,N/A,,Partly Cloudy,260,2012-10-06 09:53:00
5:53 AM,28.9,21.9,75,30.38,10.0,Calm,Calm,-,N/A,,Clear,0,2012-10-06 10:53:00
6:53 AM,30.9,21.9,69,30.40,10.0,Calm,Calm,-,N/A,,Clear,0,2012-10-06 11:53:00
7:53 AM,28.9,21.0,72,30.42,10.0,Calm,Calm,-,N/A,,Clear,0,2012-10-06 12:53:00
8:53 AM,33.8,23.0,65,30.38,10.0,North,4.6,-,N/A,,Clear,10,2012-10-06 13:53:00
9:53 AM,37.0,19.9,50,30.44,10.0,North,4.6,-,N/A,,Clear,10,2012-10-06 14:53:00
10:53 AM,37.9,19.9,48,30.45,10.0,NNW,4.6,-,N/A,,Clear,330,2012-10-06 15:53:00
11:53 AM,39.9,19.9,45,30.42,10.0,NNW,8.1,-,N/A,,Scattered Clouds,330,2012-10-06 16:53:00
12:53 PM,42.1,19.9,41,30.42,10.0,North,13.8,-,N/A,,Mostly Cloudy,350,2012-10-06 17:53:00
1:53 PM,41.0,19.0,41,30.41,10.0,NNW,13.8,-,N/A,,Mostly Cloudy,340,2012-10-06 18:53:00
2:53 PM,42.1,19.0,40,30.38,10.0,NW,9.2,-,N/A,,Scattered Clouds,310,2012-10-06 19:53:00
3:53 PM,42.1,18.0,38,30.38,10.0,NW,10.4,-,N/A,,Overcast,320,2012-10-06 20:53:00
4:53 PM,43.0,17.1,35,30.38,10.0,WNW,10.4,19.6,N/A,,Overcast,300,2012-10-06 21:53:00
5:53 PM,43.0,17.1,35,30.38,10.0,WNW,11.5,-,N/A,,Overcast,300,2012-10-06 22:53:00
6:53 PM,42.1,18.0,38,30.37,10.0,WNW,6.9,-,N/A,,Mostly Cloudy,300,2012-10-06 23:53:00
7:53 PM,39.0,28.9,67,30.39,10.0,West,9.2,-,N/A,,Overcast,280,2012-10-07 00:53:00
8:53 PM,36.0,28.9,76,30.39,10.0,West,9.2,-,N/A,,Partly Cloudy,280,2012-10-07 01:53:00
9:53 PM,35.1,30.0,82,30.38,10.0,West,8.1,-,N/A,,Clear,280,2012-10-07 02:53:00
10:53 PM,34.0,30.0,85,30.38,10.0,West,9.2,-,N/A,,Clear,280,2012-10-07 03:53:00
11:53 PM,32.0,28.4,87,30.31,10.0,West,6.9,-,N/A,,Clear,280,2012-10-07 04:53:00